GFSNGP_prec_cthk_057.txt.gz
RH
46 50 47 47 52 55 50 45 45 39 40 38 37 38 36 32 32 34 34 37 41 46 51 54 53 61 67 70 80 87 88 92 92 85 82 82 78 78 80 83 88 90 86 83
50 48 44 42 39 42 43 38 38 33 35 37 34 35 35 34 34 37 38 41 42 46 47 49 53 56 56 68 77 86 89 91 75 78 84 81 79 81 86 89 94 89 91 80
47 46 46 52 39 37 34 32 30 34 30 35 38 40 39 38 36 37 40 40 39 39 41 48 48 51 55 57 58 63 70 67 73 76 75 77 80 88 92 92 93 91 76 69
56 48 52 29 25 23 24 24 22 23 26 29 31 35 40 44 39 40 40 37 36 37 37 39 40 40 41 47 54 59 65 73 72 73 75 86 92 96 94 90 84 71 58 40
56 51 38 31 26 27 29 30 31 34 37 38 39 39 41 40 38 35 35 37 38 38 38 39 41 44 48 60 64 68 67 68 75 84 89 94 95 92 86 74 59 41 29 27
62 56 53 35 35 37 39 41 34 37 40 41 41 43 42 39 40 41 39 36 35 35 37 40 44 50 57 62 65 68 75 82 84 89 94 90 81 75 62 46 31 21 17 21
73 63 57 40 27 30 39 34 37 41 43 43 43 42 42 42 38 35 34 34 36 38 41 46 51 56 61 65 69 77 84 89 93 90 85 78 67 50 35 22 19 17 19 21
76 69 58 33 35 32 32 36 38 43 45 47 46 41 37 36 36 37 37 39 41 44 48 52 56 59 65 76 83 86 87 88 84 76 63 51 37 24 19 18 18 20 22 22
67 60 38 35 32 33 35 39 45 46 45 41 38 37 37 38 38 40 42 46 50 54 56 59 66 79 79 77 81 82 80 73 63 53 40 28 23 21 21 23 24 25 26 26
62 51 39 33 32 32 35 38 39 38 37 37 36 39 38 41 43 47 52 55 58 58 63 77 78 77 78 77 76 73 66 54 41 32 24 21 21 21 23 25 28 30 34 42
64 47 37 36 37 37 35 36 37 40 40 40 43 43 43 46 51 57 61 63 65 77 79 82 79 74 71 71 65 54 42 32 28 25 23 21 21 22 24 26 36 42 45 50
54 36 34 41 43 42 39 38 40 41 44 48 49 48 49 53 61 67 66 69 74 80 81 76 72 68 64 58 46 36 31 26 22 19 18 19 19 20 24 25 26 31 35 37
47 42 41 45 46 45 45 45 46 48 51 53 55 53 57 65 68 70 71 76 80 77 73 67 63 58 51 40 33 29 24 20 17 17 18 19 21 22 21 20 24 24 23 23
54 52 55 53 52 51 51 51 52 55 58 59 57 61 68 72 73 75 79 79 76 69 62 58 53 46 38 34 29 22 19 18 19 20 21 22 22 22 24 28 26 20 14 18
65 63 60 59 60 60 59 60 62 64 63 62 67 73 76 76 78 80 78 72 65 60 55 50 46 39 34 27 22 21 21 21 21 21 21 21 22 24 26 29 31 30 25 18
74 72 70 69 70 70 70 71 69 65 66 70 75 77 76 77 76 71 65 62 59 56 52 45 38 31 28 25 23 23 22 22 21 20 19 19 24 25 26 26 27 32 35 38
85 85 85 85 83 82 81 76 72 71 74 78 79 78 75 72 66 65 62 60 58 53 44 35 33 30 27 25 24 24 22 22 21 19 20 20 21 22 25 31 32 31 42 45
82 82 87 92 94 91 85 77 78 82 84 81 74 70 69 71 68 65 63 59 53 41 36 37 33 30 28 27 26 24 23 21 20 21 21 20 21 23 27 30 33 35 35 50
84 89 97 97 94 88 84 86 90 86 80 74 76 77 72 70 67 65 60 50 44 40 39 36 33 31 30 28 25 24 23 23 24 22 22 22 23 26 29 32 33 37 39 41
98 97 92 87 86 88 90 90 86 83 84 81 75 73 71 69 65 57 51 46 44 42 39 37 34 32 30 27 26 25 25 26 24 23 23 25 27 28 31 34 36 38 41 44
85 86 90 92 92 91 92 89 86 82 78 76 74 73 70 63 56 51 47 48 45 43 41 38 36 33 29 28 27 27 27 26 26 25 27 29 30 32 34 37 40 42 43 47
94 95 94 93 92 90 89 85 83 80 77 76 72 67 61 55 52 51 50 49 47 46 43 40 37 34 32 31 31 30 29 28 27 29 31 32 33 35 38 41 43 46 49 51
97 97 97 97 92 87 87 85 84 82 77 74 67 60 56 56 55 54 54 54 51 49 47 42 40 38 36 35 33 31 30 28 30 32 33 34 36 38 40 41 43 48 53 58
97 97 95 92 91 90 89 85 82 79 73 64 63 63 60 60 60 60 60 59 57 53 48 46 41 39 38 35 33 31 30 32 34 35 35 36 34 34 35 36 38 40 44 53
95 93 92 92 92 91 87 82 75 70 70 70 67 65 63 63 65 65 64 64 60 55 50 45 42 39 37 35 33 33 34 36 37 35 33 32 34 36 38 39 43 44 46 48
91 92 94 96 91 84 79 78 77 76 74 69 66 66 68 70 70 68 67 65 59 52 47 44 40 39 37 35 35 37 37 38 36 32 33 36 38 39 40 43 45 46 50 54
93 88 84 84 84 82 82 81 76 70 69 70 71 72 74 74 73 72 69 63 55 49 44 41 40 39 39 39 40 40 37 36 32 33 36 38 39 41 41 44 48 55 66 72

GFSNGP_prec_cthk_060.txt.gz
RH
40 39 45 50 47 48 48 50 51 48 47 36 29 30 35 37 35 35 36 36 39 43 46 50 56 56 57 57 62 66 71 73 78 81 88 94 91 76 92 95 83 79 92 94
47 47 47 50 44 42 41 50 47 44 39 35 32 29 31 37 38 40 41 42 42 45 48 51 51 51 55 56 54 52 62 66 69 78 87 81 79 78 84 73 88 91 94 97
52 50 48 53 42 41 33 29 29 33 29 31 30 30 30 34 41 42 43 43 42 43 44 44 46 48 48 49 52 52 55 61 70 75 76 78 78 79 79 89 96 94 92 82
64 62 63 35 36 33 30 24 23 23 23 25 26 27 30 32 36 39 41 40 39 40 40 40 39 39 41 42 44 49 58 66 70 69 77 77 79 96 91 92 93 87 77 63
67 65 54 41 33 30 27 21 21 23 29 32 36 38 40 41 41 41 41 40 38 38 40 38 38 39 43 47 53 61 63 66 69 71 76 88 90 91 88 83 77 66 51 34
69 65 59 46 32 28 28 29 28 37 36 37 39 41 42 41 40 39 40 41 41 36 34 37 40 44 50 55 60 65 66 67 74 83 90 90 87 86 80 71 56 39 23 19
72 64 55 48 41 36 41 31 22 27 33 38 40 40 40 40 42 44 42 35 34 36 38 41 46 52 57 58 62 63 69 83 87 85 82 84 80 71 59 42 29 22 19 19
69 68 62 47 52 47 32 25 26 30 34 38 40 42 42 44 42 36 36 36 37 39 42 46 51 54 56 60 68 80 83 80 79 78 76 70 62 48 35 27 23 21 21 19
59 56 48 47 52 45 29 26 28 31 37 41 43 44 42 37 36 36 37 39 41 45 49 52 55 58 64 77 78 78 77 74 72 70 63 51 38 30 25 23 22 21 22 23
64 62 59 56 53 50 29 27 29 31 36 39 39 38 38 38 37 37 39 43 47 52 57 60 65 75 77 77 78 72 69 66 61 54 42 33 28 24 22 19 18 20 23 24
66 67 65 61 57 45 31 32 34 34 35 37 39 40 41 42 42 43 46 50 56 62 67 73 79 77 75 73 69 63 59 54 46 37 30 26 21 17 17 19 20 20 20 22
64 63 68 60 48 39 35 37 39 37 37 40 42 43 47 49 50 51 55 60 67 71 76 78 76 73 69 63 58 54 48 42 36 30 24 21 20 18 19 18 17 18 20 25
54 62 62 55 44 42 41 42 42 44 44 44 49 52 54 57 59 61 64 68 71 76 78 76 71 65 60 56 52 47 42 35 28 26 24 20 19 18 15 15 16 17 20 20
60 60 63 57 53 53 51 50 50 53 52 53 57 63 64 65 65 68 72 76 80 80 75 67 61 58 56 53 49 44 34 29 29 25 21 20 19 18 19 20 16 14 15 17
65 64 65 64 66 67 66 64 64 63 62 65 68 72 72 70 74 79 84 85 81 75 65 62 61 58 56 52 44 35 33 32 27 23 21 20 19 18 19 20 22 21 18 17
77 75 74 73 77 76 73 72 70 71 74 77 79 78 77 79 85 90 87 80 71 68 65 63 62 58 52 43 39 37 36 28 24 22 21 20 19 20 21 22 23 24 25 25
81 84 84 86 84 87 85 86 85 85 87 88 84 83 86 90 89 82 73 71 71 70 67 63 59 50 45 43 40 38 29 26 24 23 22 21 21 23 24 23 23 25 27 28
91 87 86 82 87 87 90 94 94 96 93 88 85 88 91 85 75 77 76 73 72 67 64 57 51 48 44 43 39 32 28 27 25 24 24 25 26 26 24 24 26 27 26 28
86 85 84 84 84 88 95 98 97 92 91 89 88 83 78 83 80 78 75 72 68 62 57 53 49 47 47 41 34 31 29 27 28 28 27 28 28 26 26 27 28 28 30 32
85 87 87 88 89 98 98 95 94 94 91 83 84 86 83 80 77 75 73 67 61 57 55 52 53 49 41 36 34 31 30 31 31 30 30 30 28 27 29 30 30 30 32 35
95 94 97 98 95 93 93 92 93 87 91 90 86 81 78 76 75 70 65 62 59 57 59 57 49 43 40 37 33 33 35 35 34 32 32 30 29 30 32 31 29 29 29 32
97 95 94 94 95 95 96 94 94 91 85 81 80 79 76 74 71 67 63 61 64 63 57 52 48 46 43 40 39 39 38 38 36 34 33 32 32 33 30 27 27 28 31 32
96 96 96 97 97 96 94 91 87 84 83 83 80 77 74 70 67 66 68 66 62 59 57 54 51 48 45 43 43 41 40 39 36 35 34 35 35 31 29 29 30 32 34 36
97 97 97 97 95 92 92 88 86 87 84 82 79 73 71 73 72 68 65 64 64 64 62 59 54 50 47 44 42 41 40 38 36 37 38 36 34 33 32 32 33 35 37 39
98 97 97 97 96 93 93 92 89 87 84 78 77 78 74 70 69 68 69 70 68 66 64 59 55 52 49 45 42 40 39 39 40 40 38 36 35 33 33 35 36 36 40 44
98 98 97 97 97 97 95 89 83 82 83 82 81 78 75 74 75 74 73 72 68 66 64 60 57 54 48 42 40 42 43 43 41 41 38 38 35 35 35 36 39 41 46 54
93 91 94 94 90 87 88 89 89 88 87 84 82 82 82 81 81 79 78 76 72 70 66 63 57 49 42 43 45 46 46 45 43 40 39 38 38 38 38 39 42 46 54 68

GFSNGP_prec_cthk_063.txt.gz
RH
34 34 36 36 38 43 46 45 48 41 46 38 37 32 28 24 24 30 34 36 38 39 45 50 52 57 63 62 63 61 63 64 66 72 68 74 71 75 86 90 91 91 90 82
41 40 39 40 38 41 46 44 42 41 42 40 33 31 28 28 28 30 35 41 41 44 46 50 53 55 58 56 57 53 54 59 60 59 56 56 72 72 81 80 83 82 85 89
46 47 49 50 40 41 43 41 40 39 28 30 27 26 28 28 28 29 28 31 39 42 46 50 51 53 54 53 52 53 55 53 49 52 61 64 71 77 72 84 82 86 87 86
56 54 62 38 37 39 42 37 34 28 25 23 23 27 27 28 30 32 34 36 38 40 41 42 44 46 46 43 43 44 46 51 55 64 66 69 71 81 79 87 88 80 77 74
63 56 48 38 37 45 45 30 27 22 22 25 29 34 36 36 38 39 40 40 40 41 41 41 43 44 41 42 46 49 53 57 60 66 67 72 77 83 84 81 77 74 68 57
63 59 55 41 39 41 42 32 32 31 28 32 35 36 35 39 40 39 40 41 41 40 41 40 37 39 42 45 48 54 57 63 65 66 76 80 79 80 75 70 63 56 45 35
63 62 49 42 41 42 48 36 37 29 28 30 28 30 34 39 41 42 42 42 43 40 36 37 40 43 47 50 53 57 60 65 74 74 74 77 72 65 59 54 47 40 33 28
64 64 52 42 46 48 42 46 44 33 29 31 31 33 36 40 42 44 46 44 39 37 38 40 44 48 51 54 59 63 72 75 74 73 70 63 57 52 47 44 38 31 25 22
62 50 44 44 45 45 43 50 48 39 29 32 33 36 39 41 45 46 42 40 39 40 41 44 49 52 56 64 70 73 73 73 69 62 56 52 49 45 40 32 24 22 21 21
66 56 51 52 51 57 53 49 50 43 30 30 34 40 42 43 43 41 41 41 42 45 48 54 58 62 69 71 73 73 70 64 56 53 49 46 43 37 30 25 24 25 24 25
65 66 60 59 57 63 63 57 49 40 34 33 36 39 39 41 42 44 46 48 48 52 57 62 68 71 70 71 71 67 60 54 50 49 47 43 38 31 28 28 27 24 28 25
65 64 63 54 57 62 64 58 49 39 40 39 38 39 40 41 43 46 51 54 56 61 67 70 72 70 70 70 65 58 53 52 50 48 44 37 34 33 31 27 21 18 17 19
60 64 61 54 52 64 66 60 48 45 43 42 44 46 48 50 53 57 61 64 67 69 71 73 74 72 68 64 59 57 54 52 50 45 38 37 36 32 28 22 18 16 16 18
64 62 58 57 60 62 59 56 55 56 55 54 55 58 59 62 66 70 72 73 74 77 78 76 73 67 63 61 59 57 55 52 45 41 40 39 34 28 23 18 17 18 19 19
59 61 65 64 67 66 66 66 65 67 69 69 70 70 72 73 77 81 82 83 85 82 78 74 68 67 64 61 59 57 52 46 44 44 42 36 30 24 20 19 20 20 20 20
64 68 72 71 72 73 73 73 73 78 78 77 75 79 82 86 89 90 90 91 88 80 73 72 70 69 65 61 58 52 49 46 46 44 37 31 25 23 23 23 22 22 22 20
78 80 80 79 78 80 81 81 84 88 86 85 88 93 93 95 94 95 92 85 77 78 78 76 71 67 63 59 53 51 49 49 44 38 32 28 26 27 27 27 27 26 25 23
88 86 87 93 92 91 90 91 91 93 97 96 97 97 97 97 96 88 80 83 84 81 74 72 68 63 59 55 53 52 51 46 40 34 30 30 30 29 30 32 31 28 26 26
87 95 93 97 97 95 94 95 93 93 95 97 97 97 96 89 83 86 85 84 79 75 72 67 64 59 57 56 57 52 47 39 34 33 33 33 33 33 34 34 32 30 28 25
88 90 92 94 97 95 97 97 97 94 97 97 96 91 86 90 90 86 83 79 75 71 68 64 61 61 62 59 52 45 40 37 36 35 34 35 35 36 36 34 32 29 27 27
88 89 93 94 96 98 98 98 97 97 96 92 91 94 92 88 84 80 78 74 71 69 66 66 67 65 59 51 47 44 42 41 39 38 38 37 38 37 35 33 32 31 31 30
94 96 97 97 98 98 98 98 96 94 95 95 92 87 84 82 80 78 75 72 71 71 73 71 65 60 57 54 51 49 46 45 43 42 41 40 37 36 35 35 35 35 34 32
97 97 97 98 98 97 96 96 97 95 91 87 84 84 83 81 79 77 75 76 76 74 71 68 65 63 61 57 55 53 51 50 48 47 43 39 38 38 38 38 38 36 34 33
96 97 97 97 97 96 96 95 91 89 88 89 87 84 82 81 78 76 78 78 80 80 77 75 73 69 65 63 60 58 57 55 53 48 42 40 40 41 41 41 38 36 36 37
97 96 96 97 97 97 96 92 91 93 92 89 88 84 79 78 79 82 85 86 84 80 77 75 73 70 67 65 63 63 60 57 53 45 42 43 44 45 44 41 39 38 40 42
97 96 96 97 97 97 97 97 96 95 92 89 88 88 88 89 88 86 83 81 82 84 83 79 76 73 71 67 65 62 59 54 47 46 47 48 48 46 43 43 43 44 44 46
96 96 97 97 97 97 97 96 94 92 91 90 89 87 87 85 82 81 83 84 84 82 80 77 75 71 68 63 60 55 51 51 51 51 52 49 46 45 47 49 50 48 47 50

GFSNGP_prec_cthk_069.txt.gz
RH
32 38 42 38 36 36 38 40 43 43 45 39 44 47 44 53 52 41 32 28 27 36 43 42 42 43 41 45 47 49 55 61 65 71 72 73 74 72 68 69 70 65 62 63
38 37 43 40 32 31 31 33 32 32 36 41 44 42 39 38 41 39 36 32 29 30 46 51 51 52 47 54 58 59 64 70 76 77 76 74 69 64 65 62 63 59 62 64
43 41 41 45 31 34 34 34 36 38 43 45 46 44 41 35 38 31 31 34 36 38 43 47 51 51 53 62 69 72 76 73 73 72 70 64 62 60 55 56 58 64 65 64
55 54 60 42 33 34 34 36 38 38 37 36 41 40 31 25 24 25 28 32 39 42 40 43 49 51 54 57 65 69 68 65 61 59 55 52 51 52 55 60 64 66 68 73
63 52 40 40 36 32 32 34 36 38 38 40 42 34 27 26 26 28 30 33 36 38 43 46 47 48 51 53 56 57 55 54 52 47 48 49 52 57 62 63 65 67 66 62
60 57 59 41 37 35 34 43 31 41 47 42 37 32 27 27 30 31 32 32 34 37 41 44 46 48 50 52 53 54 51 45 45 47 50 56 57 59 61 62 64 62 59 53
65 66 50 42 39 38 45 34 37 41 45 42 38 36 38 32 30 32 33 34 36 39 41 45 48 50 51 53 51 44 44 46 47 53 56 56 59 61 60 60 58 57 49 48
72 76 73 52 45 45 36 42 42 40 40 39 40 41 45 44 37 34 35 36 39 41 43 48 50 53 53 47 44 44 46 49 52 54 58 60 61 61 58 56 53 50 50 50
67 68 61 57 52 51 49 47 51 46 45 42 47 47 46 48 47 40 39 40 40 41 45 50 53 52 47 45 46 49 52 55 58 60 60 60 58 55 52 52 52 53 51 49
74 68 65 64 57 54 54 54 56 54 52 49 50 52 53 51 48 46 44 44 43 44 47 50 51 50 49 50 53 55 57 60 62 61 59 56 55 56 54 55 54 50 50 51
52 50 60 66 63 63 64 60 57 59 55 55 55 55 56 57 56 50 48 47 45 47 51 53 53 55 57 58 60 64 65 63 61 59 60 60 59 56 54 52 48 44 46 44
48 41 48 56 65 61 60 61 63 63 60 57 57 57 63 65 60 56 55 55 52 52 55 57 60 65 71 76 76 73 68 65 64 63 61 62 59 58 56 51 46 44 43 42
50 50 52 54 55 60 60 59 63 62 61 60 59 60 64 67 63 61 58 59 61 61 63 67 73 78 81 82 81 78 73 68 65 64 64 62 60 60 56 54 54 50 48 44
48 48 46 45 50 50 51 59 62 61 59 64 64 64 65 65 65 62 62 66 67 69 71 76 81 84 86 82 79 76 71 70 70 71 67 62 63 58 58 59 58 56 53 46
55 54 52 54 53 53 54 54 56 60 63 69 70 70 70 69 67 67 68 72 76 77 81 85 92 91 85 81 77 77 75 72 69 66 62 59 57 55 59 61 60 53 47 44
51 56 57 56 57 58 59 59 62 66 73 73 73 75 76 77 78 79 81 83 88 90 96 98 94 86 85 90 84 81 77 74 70 66 63 62 60 62 64 60 53 50 50 49
54 51 52 55 57 59 63 66 69 69 71 75 84 86 84 84 88 92 95 98 98 97 94 91 96 96 90 86 84 82 76 72 67 65 65 64 62 62 59 56 57 54 50 48
51 50 49 56 66 71 72 75 84 90 91 91 93 93 96 97 98 97 97 97 97 97 97 96 96 93 88 84 78 73 71 68 67 65 64 65 64 58 63 61 58 55 54 54
58 58 64 73 81 88 84 81 88 95 95 96 95 97 97 97 97 97 97 96 96 97 96 95 90 85 81 78 75 72 70 68 69 71 69 70 70 70 67 64 63 61 59 59
70 71 80 87 94 98 98 95 96 97 98 97 97 97 97 97 97 96 97 97 97 96 92 87 83 81 78 76 74 74 74 76 80 79 78 75 73 71 69 69 69 67 65 64
84 87 90 98 97 98 96 95 96 95 95 95 94 95 96 95 96 97 96 96 92 87 84 82 81 79 79 78 77 80 83 83 82 80 77 74 72 71 72 73 71 67 66 62
97 98 98 97 96 93 92 92 93 93 95 95 96 96 97 97 97 95 94 92 86 82 80 81 79 76 78 82 88 88 87 84 80 76 74 75 76 75 75 75 71 68 62 55
97 96 96 95 92 92 94 95 97 97 96 96 96 95 96 95 94 92 88 82 80 77 81 83 85 88 88 87 86 86 84 82 80 77 77 78 77 74 71 66 59 52 48 49
96 96 96 96 95 94 94 95 94 93 90 89 86 87 90 88 86 81 79 80 82 86 85 84 82 80 80 81 80 78 74 71 68 66 63 58 53 50 48 49 48 49 50 51
98 97 98 98 97 95 94 93 92 92 90 90 90 90 89 87 89 87 84 84 83 82 78 75 73 68 62 52 46 42 40 39 40 41 42 45 47 48 51 53 54 55 57 59
97 97 97 97 96 94 94 94 93 93 92 91 88 86 84 82 80 78 74 69 61 53 45 37 32 31 33 35 37 39 42 44 47 50 52 54 56 57 59 61 63 65 66 68
97 97 95 95 94 94 93 92 91 88 86 82 78 74 67 59 49 41 37 36 33 32 32 34 35 36 36 37 40 43 45 48 51 53 55 56 58 61 63 64 66 69 68 67